TimePDT,TemperatureF,Dew PointF,Humidity,Sea Level PressureIn,VisibilityMPH,Wind Direction,Wind SpeedMPH,Gust SpeedMPH,PrecipitationIn,Events,Conditions,WindDirDegrees,DateUTC
12:53 AM,45.0,37.0,74,30.03,10.0,South,6.9,-,N/A,,Overcast,180,2013-03-16 07:53:00
1:53 AM,44.1,37.0,76,30.02,10.0,South,10.4,-,N/A,,Overcast,190,2013-03-16 08:53:00
2:53 AM,43.0,36.0,76,30.01,10.0,South,8.1,-,N/A,,Mostly Cloudy,190,2013-03-16 09:53:00
3:53 AM,42.1,35.1,76,29.99,10.0,SSW,11.5,-,N/A,,Overcast,200,2013-03-16 10:53:00
4:53 AM,42.1,36.0,79,29.98,10.0,SSW,11.5,-,N/A,,Overcast,200,2013-03-16 11:53:00
5:53 AM,41.0,36.0,82,29.97,10.0,SSW,17.3,-,N/A,,Overcast,210,2013-03-16 12:53:00
6:53 AM,39.9,35.1,83,29.97,10.0,SSW,10.4,-,0.00,,Mostly Cloudy,210,2013-03-16 13:53:00
7:53 AM,41.0,35.1,79,29.96,10.0,SSW,13.8,-,N/A,,Mostly Cloudy,200,2013-03-16 14:53:00
8:53 AM,42.1,36.0,79,29.96,10.0,SSW,15.0,-,N/A,,Overcast,200,2013-03-16 15:53:00
9:53 AM,43.0,36.0,76,29.96,10.0,SSW,13.8,-,N/A,,Overcast,210,2013-03-16 16:53:00
10:53 AM,45.0,37.0,74,29.94,10.0,SSW,15.0,-,N/A,,Overcast,210,2013-03-16 17:53:00
11:53 AM,46.0,37.0,71,29.93,10.0,SSW,17.3,-,N/A,,Overcast,200,2013-03-16 18:53:00
12:53 PM,48.0,37.0,66,29.89,10.0,SSW,15.0,-,N/A,,Overcast,210,2013-03-16 19:53:00
1:53 PM,51.1,35.1,54,29.85,10.0,SW,19.6,25.3,N/A,,Overcast,220,2013-03-16 20:53:00
2:53 PM,50.0,33.1,52,29.81,10.0,SW,18.4,26.5,N/A,,Overcast,220,2013-03-16 21:53:00
3:53 PM,48.0,34.0,58,29.80,10.0,WSW,13.8,-,0.00,Rain,Light Rain,240,2013-03-16 22:53:00
4:53 PM,48.0,30.0,50,29.78,10.0,SW,25.3,-,0.00,,Overcast,220,2013-03-16 23:53:00
5:53 PM,39.9,36.0,86,29.78,10.0,SSW,24.2,32.2,0.00,Rain,Light Rain,210,2013-03-17 00:53:00
6:53 PM,42.1,35.1,76,29.75,10.0,SSW,13.8,21.9,0.00,,Mostly Cloudy,200,2013-03-17 01:53:00
7:53 PM,41.0,35.1,79,29.73,10.0,SSW,16.1,25.3,N/A,,Mostly Cloudy,200,2013-03-17 02:53:00
8:53 PM,41.0,35.1,79,29.72,10.0,SW,11.5,-,N/A,,Overcast,220,2013-03-17 03:53:00
9:53 PM,39.9,33.1,77,29.69,10.0,SW,20.7,26.5,N/A,,Mostly Cloudy,220,2013-03-17 04:53:00
10:53 PM,39.0,27.0,62,29.70,10.0,SW,29.9,41.4,N/A,,Overcast,230,2013-03-17 05:53:00
11:53 PM,37.0,27.0,67,29.70,10.0,SW,23.0,28.8,0.00,,Mostly Cloudy,220,2013-03-17 06:53:00